Location: Asheville, NC
(35.6000°N, 82.5500°W)
Time: 17:17:16
(UTC-04:00)

Vanguard 2 - Pass Details

Date: 17 February 2018
Orbit: 552 x 2940 km, 32.9° (Epoch: 22 May)

Event Time Altitude Azimuth Distance (km) Brightness Sun altitude
Rises 16:51:40 0° 220° (SW) 6,070 13.4 14.9°
Reaches altitude 10° 16:56:49 10° 211° (SSW) 4,680 12.7 13.9°
Maximum altitude 17:06:45 30° 157° (SSE) 2,535 10.3 12.1°
Drops below altitude 10° 17:13:24 10° 99° (E) 3,077 10.1 10.9°
Sets 17:16:01 0° 88° (E) 3,759 10.5 10.4°
